When you browse on this site, cookies collect data to enhance your experience and personalize the content and advertising you see.
Visit our Privacy Policy to learn more. By continuing to use the site, you agree to this use of cookies and data.
  • In Czech Republic
  • List of Countries
  • For 7 days
  • Water Temperature
  • Weather Map
  • Weather Widgets
  • user-avatar
    Login

    Hourly Weather Kastoria

    Today, 22 October, Tuesday

    Time Temperature Precipitation Wind Pressure Humidity
    00:00 +15°C° 0 mm 0 mps 707 mmHg 56%
    01:00 +15°C° 0 mm 0 mps 707 mmHg 58%
    02:00 +14°C° 0 mm 0 mps 707 mmHg 59%
    03:00 +14°C° 0 mm 0 mps 707 mmHg 60%
    04:00 +15°C° 0 mm 1 mps 707 mmHg 61%
    05:00 +15°C° 0 mm 1 mps 707 mmHg 61%
    06:00 +15°C° 0 mm 0 mps 707 mmHg 60%
    07:00 +15°C° 0 mm 0 mps 707 mmHg 59%
    08:00 +20°C° 0 mm 1 mps 708 mmHg 52%
    09:00 +22°C° 0 mm 1 mps 708 mmHg 46%
    10:00 +24°C° 0 mm 1 mps 708 mmHg 39%
    11:00 +24°C° 0 mm 1 mps 708 mmHg 36%
    12:00 +25°C° 0 mm 1 mps 708 mmHg 34%
    13:00 +26°C° 0 mm 2 mps 708 mmHg 31%
    14:00 +25°C° 0 mm 2 mps 707 mmHg 33%
    15:00 +24°C° 0 mm 2 mps 707 mmHg 35%
    16:00 +24°C° 0 mm 1 mps 707 mmHg 38%
    17:00 +22°C° 0 mm 1 mps 707 mmHg 42%
    18:00 +20°C° 0 mm 1 mps 707 mmHg 47%
    19:00 +16°C° 0 mm 0 mps 707 mmHg 52%
    20:00 +16°C° 0 mm 0 mps 707 mmHg 54%
    21:00 +15°C° 0 mm 0 mps 707 mmHg 56%
    22:00 +15°C° 0 mm 0 mps 707 mmHg 58%
    23:00 +15°C° 0 mm 0 mps 707 mmHg 59%

    Tomorrow, 23 October, Wednesday

    Time Temperature Precipitation Wind Pressure Humidity
    00:00 +14°C° 0 mm 0 mps 707 mmHg 61%
    01:00 +14°C° 0 mm 0 mps 707 mmHg 62%
    02:00 +13°C° 0 mm 0 mps 707 mmHg 64%
    03:00 +13°C° 0 mm 0 mps 706 mmHg 65%
    04:00 +13°C° 0 mm 0 mps 706 mmHg 67%
    05:00 +13°C° 0 mm 0 mps 706 mmHg 65%
    06:00 +14°C° 0 mm 0 mps 707 mmHg 64%
    07:00 +14°C° 0 mm 0 mps 707 mmHg 62%
    08:00 +16°C° 0 mm 0 mps 707 mmHg 55%
    09:00 +21°C° 0 mm 1 mps 707 mmHg 47%
    10:00 +23°C° 0 mm 1 mps 708 mmHg 40%
    11:00 +23°C° 0 mm 1 mps 707 mmHg 36%
    12:00 +24°C° 0 mm 1 mps 707 mmHg 32%
    13:00 +25°C° 0 mm 2 mps 707 mmHg 29%
    14:00 +24°C° 0 mm 1 mps 707 mmHg 31%
    15:00 +23°C° 0 mm 1 mps 706 mmHg 34%
    16:00 +22°C° 0 mm 1 mps 706 mmHg 37%
    17:00 +21°C° 0 mm 1 mps 706 mmHg 41%
    18:00 +19°C° 0 mm 1 mps 706 mmHg 45%
    19:00 +15°C° 0 mm 0 mps 706 mmHg 48%
    20:00 +15°C° 0 mm 0 mps 706 mmHg 50%
    21:00 +14°C° 0 mm 0 mps 706 mmHg 51%
    22:00 +14°C° 0 mm 0 mps 706 mmHg 52%
    23:00 +14°C° 0 mm 0 mps 706 mmHg 54%

    Day after tomorrow, 24 October, Thursday

    Time Temperature Precipitation Wind Pressure Humidity
    00:00 +13°C° 0 mm 0 mps 706 mmHg 56%
    01:00 +13°C° 0 mm 0 mps 706 mmHg 57%
    02:00 +12°C° 0 mm 0 mps 705 mmHg 58%
    03:00 +12°C° 0 mm 0 mps 705 mmHg 60%
    04:00 +12°C° 0 mm 0 mps 705 mmHg 61%
    05:00 +12°C° 0 mm 0 mps 705 mmHg 59%
    06:00 +13°C° 0 mm 0 mps 705 mmHg 58%
    07:00 +13°C° 0 mm 0 mps 705 mmHg 56%
    08:00 +18°C° 0 mm 1 mps 705 mmHg 47%
    09:00 +20°C° 0 mm 1 mps 706 mmHg 39%
    10:00 +23°C° 0 mm 1 mps 706 mmHg 31%
    11:00 +23°C° 0 mm 2 mps 706 mmHg 28%
    12:00 +24°C° 0 mm 2 mps 706 mmHg 26%
    13:00 +25°C° 0 mm 2 mps 705 mmHg 23%
    14:00 +24°C° 0 mm 2 mps 705 mmHg 26%
    15:00 +23°C° 0 mm 2 mps 705 mmHg 29%
    16:00 +22°C° 0 mm 1 mps 704 mmHg 32%
    17:00 +20°C° 0 mm 1 mps 704 mmHg 35%
    18:00 +18°C° 0 mm 1 mps 704 mmHg 37%
    19:00 +16°C° 0 mm 1 mps 704 mmHg 40%
    20:00 +14°C° 0 mm 0 mps 704 mmHg 41%
    21:00 +14°C° 0 mm 0 mps 704 mmHg 42%
    22:00 +13°C° 0 mm 0 mps 704 mmHg 43%
    23:00 +13°C° 0 mm 0 mps 704 mmHg 44%

    25 October, Friday

    Time Temperature Precipitation Wind Pressure Humidity
    00:00 +12°C° 0 mm 0 mps 704 mmHg 44%
    01:00 +12°C° 0 mm 0 mps 703 mmHg 45%
    02:00 +12°C° 0 mm 0 mps 703 mmHg 45%
    03:00 +11°C° 0 mm 0 mps 703 mmHg 46%
    04:00 +11°C° 0 mm 0 mps 703 mmHg 46%
    05:00 +12°C° 0 mm 0 mps 703 mmHg 44%
    06:00 +12°C° 0 mm 0 mps 703 mmHg 43%
    07:00 +13°C° 0 mm 0 mps 704 mmHg 42%
    08:00 +15°C° 0 mm 0 mps 704 mmHg 36%
    09:00 +18°C° 0 mm 0 mps 704 mmHg 31%
    10:00 +20°C° 0 mm 0 mps 705 mmHg 25%
    11:00 +23°C° 0 mm 1 mps 705 mmHg 23%
    12:00 +24°C° 0 mm 1 mps 704 mmHg 22%
    13:00 +25°C° 0 mm 1 mps 704 mmHg 20%
    14:00 +23°C° 0 mm 1 mps 704 mmHg 23%
    15:00 +22°C° 0 mm 1 mps 704 mmHg 27%
    16:00 +21°C° 0 mm 1 mps 704 mmHg 30%
    17:00 +18°C° 0 mm 0 mps 704 mmHg 31%
    18:00 +16°C° 0 mm 0 mps 704 mmHg 33%
    19:00 +15°C° 0 mm 0 mps 704 mmHg 35%
    20:00 +14°C° 0 mm 0 mps 704 mmHg 36%
    21:00 +14°C° 0 mm 0 mps 704 mmHg 36%
    22:00 +14°C° 0 mm 0 mps 705 mmHg 37%
    23:00 +13°C° 0 mm 0 mps 705 mmHg 39%

    26 October, Saturday

    Time Temperature Precipitation Wind Pressure Humidity
    00:00 +13°C° 0 mm 0 mps 704 mmHg 40%
    01:00 +12°C° 0 mm 0 mps 704 mmHg 42%
    02:00 +12°C° 0 mm 0 mps 704 mmHg 43%
    03:00 +12°C° 0 mm 0 mps 704 mmHg 44%
    04:00 +11°C° 0 mm 0 mps 704 mmHg 45%
    05:00 +12°C° 0 mm 0 mps 705 mmHg 45%
    06:00 +13°C° 0 mm 0 mps 705 mmHg 45%
    07:00 +13°C° 0 mm 0 mps 705 mmHg 45%
    08:00 +15°C° 0 mm 0 mps 706 mmHg 39%
    09:00 +20°C° 0 mm 1 mps 706 mmHg 33%
    10:00 +22°C° 0 mm 1 mps 707 mmHg 28%
    11:00 +23°C° 0 mm 1 mps 707 mmHg 26%
    12:00 +24°C° 0 mm 1 mps 706 mmHg 24%
    13:00 +25°C° 0 mm 1 mps 706 mmHg 22%
    14:00 +24°C° 0 mm 1 mps 706 mmHg 25%
    15:00 +23°C° 0 mm 1 mps 706 mmHg 28%
    16:00 +22°C° 0 mm 1 mps 705 mmHg 31%
    17:00 +20°C° 0 mm 1 mps 705 mmHg 33%
    18:00 +18°C° 0 mm 1 mps 705 mmHg 35%
    19:00 +15°C° 0 mm 0 mps 705 mmHg 38%
    20:00 +14°C° 0 mm 0 mps 705 mmHg 38%
    21:00 +14°C° 0 mm 0 mps 705 mmHg 39%
    22:00 +13°C° 0 mm 0 mps 705 mmHg 40%
    23:00 +13°C° 0 mm 0 mps 705 mmHg 41%

    27 October, Sunday

    Time Temperature Precipitation Wind Pressure Humidity
    00:00 +13°C° 0 mm 0 mps 705 mmHg 41%
    01:00 +13°C° 0 mm 1 mps 705 mmHg 42%
    02:00 +13°C° 0 mm 1 mps 705 mmHg 42%
    03:00 +13°C° 0 mm 1 mps 705 mmHg 43%
    04:00 +13°C° 0 mm 1 mps 704 mmHg 44%
    05:00 +12°C° 0 mm 0 mps 704 mmHg 43%
    06:00 +13°C° 0 mm 0 mps 705 mmHg 43%
    07:00 +13°C° 0 mm 0 mps 705 mmHg 42%
    08:00 +16°C° 0 mm 0 mps 705 mmHg 36%
    09:00 +19°C° 0 mm 0 mps 706 mmHg 31%
    10:00 +21°C° 0 mm 0 mps 706 mmHg 25%
    11:00 +24°C° 0 mm 1 mps 706 mmHg 23%
    12:00 +25°C° 0 mm 1 mps 706 mmHg 21%
    13:00 +26°C° 0 mm 1 mps 705 mmHg 19%
    14:00 +25°C° 0 mm 1 mps 705 mmHg 21%
    15:00 +24°C° 0 mm 1 mps 705 mmHg 24%
    16:00 +23°C° 0 mm 1 mps 704 mmHg 27%
    17:00 +21°C° 0 mm 1 mps 704 mmHg 29%
    18:00 +19°C° 0 mm 1 mps 704 mmHg 31%
    19:00 +18°C° 0 mm 1 mps 704 mmHg 33%
    20:00 +16°C° 0 mm 1 mps 704 mmHg 35%
    21:00 +15°C° 0 mm 1 mps 704 mmHg 36%
    22:00 +15°C° 0 mm 1 mps 704 mmHg 38%
    23:00 +14°C° 0 mm 1 mps 704 mmHg 38%

    28 October, Monday

    Time Temperature Precipitation Wind Pressure Humidity
    00:00 +14°C° 0 mm 1 mps 703 mmHg 38%
    01:00 +14°C° 0 mm 1 mps 703 mmHg 38%
    02:00 +13°C° 0 mm 1 mps 703 mmHg 37%
    03:00 +13°C° 0 mm 1 mps 703 mmHg 37%
    04:00 +13°C° 0 mm 1 mps 703 mmHg 36%
    05:00 +13°C° 0 mm 1 mps 703 mmHg 37%
    06:00 +14°C° 0 mm 1 mps 703 mmHg 37%
    07:00 +14°C° 0 mm 1 mps 703 mmHg 37%
    08:00 +18°C° 0 mm 1 mps 703 mmHg 32%
    09:00 +21°C° 0 mm 1 mps 704 mmHg 27%
    10:00 +23°C° 0 mm 1 mps 704 mmHg 23%
    11:00 +24°C° 0 mm 1 mps 704 mmHg 21%
    12:00 +25°C° 0 mm 1 mps 704 mmHg 19%
    13:00 +26°C° 0 mm 1 mps 704 mmHg 18%
    14:00 +25°C° 0 mm 1 mps 704 mmHg 21%
    15:00 +24°C° 0 mm 1 mps 703 mmHg 24%
    16:00 +22°C° 0 mm 1 mps 703 mmHg 27%
    17:00 +21°C° 0 mm 1 mps 703 mmHg 31%
    18:00 +19°C° 0 mm 1 mps 703 mmHg 34%
    19:00 +16°C° 0 mm 1 mps 703 mmHg 38%
    20:00 +16°C° 0 mm 1 mps 703 mmHg 40%
    21:00 +16°C° 0 mm 1 mps 703 mmHg 43%
    22:00 +15°C° 0 mm 1 mps 703 mmHg 45%
    23:00 +15°C° 0 mm 1 mps 703 mmHg 48%
    Show more